FW9153 Weather Reports


time (UTC)temp
F
wind
direction
speed
knots
gust
knots
rain 1hr
in
rain 24hr
in
rain mn
in
humidity
%
barometer
mb
20260507143007 60 273 0.0 0.0 0.00 0.00 0.00 88 1016.2
20260507142506 59 273 0.0 0.0 0.00 0.00 0.00 88 1016.2
20260507142005 58 273 0.0 0.0 0.00 0.00 0.00 89 1016.2
20260507141502 58 273 0.0 0.0 0.00 0.00 0.00 89 1016.1
20260507141001 57 273 0.0 0.0 0.00 0.00 0.00 89 1016.1
20260507140600 57 273 0.0 0.0 0.00 0.00 0.00 90 1016.1
20260507140059 56 273 0.0 0.0 0.00 0.00 0.00 90 1016.0
20260507135557 56 273 0.0 0.0 0.00 0.00 0.00 90 1016.0
20260507135055 56 273 0.0 0.0 0.00 0.00 0.00 91 1016.0
20260507134557 55 273 0.0 0.9 0.00 0.00 0.00 91 1015.9
20260507134053 55 273 0.0 0.9 0.00 0.00 0.00 91 1015.8
20260507133551 55 272 0.0 0.0 0.00 0.00 0.00 91 1015.7
20260507133053 54 273 0.0 0.0 0.00 0.00 0.00 91 1015.7
20260507132548 54 273 0.0 0.9 0.00 0.00 0.00 91 1015.6
20260507132048 54 272 0.0 0.9 0.00 0.00 0.00 91 1015.6
20260507131546 54 359 0.0 0.0 0.00 0.00 0.00 90 1015.5
20260507131049 54 359 0.0 0.0 0.00 0.00 0.00 90 1015.6
20260507130550 54 272 0.0 0.0 0.00 0.00 0.00 90 1015.6
20260507130045 54 359 0.0 2.6 0.00 0.00 0.00 90 1015.5
20260507125647 54 272 0.0 2.6 0.00 0.00 0.00 90 1015.5
20260507125044 54 272 0.0 1.7 0.00 0.00 0.00 90 1015.5
20260507124544 54 273 0.0 1.7 0.00 0.00 0.00 90 1015.5
20260507124047 54 273 0.0 1.7 0.00 0.00 0.00 90 1015.4
20260507123543 54 273 0.0 1.7 0.00 0.00 0.00 90 1015.5
20260507123043 54 272 0.0 1.7 0.00 0.00 0.00 90 1015.4
20260507122545 54 272 0.0 0.0 0.00 0.00 0.00 90 1015.4
20260507122045 54 273 0.0 0.0 0.00 0.00 0.00 90 1015.4
20260507121541 54 272 0.0 0.0 0.00 0.00 0.00 90 1015.4
20260507121047 54 273 0.0 0.0 0.00 0.00 0.00 90 1015.4
20260507120541 54 359 0.0 0.0 0.00 0.00 0.00 90 1015.5
20260507120043 54 272 0.0 0.0 0.00 0.00 0.00 90 1015.4
20260507115541 54 272 0.0 0.9 0.00 0.00 0.00 90 1015.4
20260507115042 54 273 0.0 0.9 0.00 0.00 0.00 90 1015.4
20260507114541 55 359 0.0 0.0 0.00 0.00 0.00 90 1015.4
20260507114043 55 272 0.0 0.0 0.00 0.00 0.00 89 1015.4
20260507113538 55 273 0.0 0.0 0.00 0.00 0.00 89 1015.4
20260507113038 55 273 0.0 0.0 0.00 0.00 0.00 89 1015.4
20260507112537 55 359 0.0 0.0 0.00 0.00 0.00 89 1015.5
20260507112036 55 272 0.0 0.0 0.00 0.00 0.00 89 1015.5
20260507111537 55 272 0.0 0.9 0.00 0.00 0.00 89 1015.6
20260507111036 55 273 0.0 0.0 0.00 0.00 0.00 89 1015.6
20260507110536 55 272 0.0 0.0 0.00 0.00 0.00 89 1015.6
20260507110047 55 359 0.0 0.0 0.00 0.00 0.00 88 1015.7
20260507105534 55 273 0.0 0.0 0.00 0.00 0.00 89 1015.8
20260507105034 55 359 0.0 0.0 0.00 0.00 0.00 89 1015.8
20260507104534 55 359 0.0 0.0 0.00 0.00 0.00 89 1015.8
20260507104033 56 272 0.0 0.0 0.00 0.00 0.00 89 1015.8
20260507103531 56 273 0.0 0.0 0.00 0.00 0.00 88 1015.8
20260507103032 56 272 0.0 0.0 0.00 0.00 0.00 88 1015.8
20260507102531 56 272 0.0 0.0 0.00 0.00 0.00 88 1015.8
20260507102031 56 273 0.0 0.0 0.00 0.00 0.00 88 1015.9
20260507101540 56 359 0.0 0.0 0.00 0.00 0.00 88 1015.8
20260507101032 56 272 0.0 0.0 0.00 0.00 0.00 88 1015.8
20260507100531 56 359 0.0 0.0 0.00 0.00 0.00 88 1015.8
20260507100035 56 272 0.0 0.0 0.00 0.00 0.00 88 1015.8
20260507095530 56 272 0.0 0.0 0.00 0.00 0.00 88 1015.9
20260507095030 56 273 0.0 0.0 0.00 0.00 0.00 88 1016.0
20260507094529 56 273 0.0 0.0 0.00 0.00 0.00 88 1015.9
20260507094028 56 273 0.0 0.9 0.00 0.00 0.00 87 1016.0
20260507093528 56 273 0.0 0.9 0.00 0.00 0.00 87 1016.0
20260507093027 56 359 0.0 0.0 0.00 0.00 0.00 87 1016.0
20260507092529 56 359 0.0 0.0 0.00 0.00 0.00 87 1016.1
20260507092026 56 272 0.0 0.0 0.00 0.00 0.00 87 1016.0
20260507091525 56 359 0.0 1.7 0.00 0.00 0.00 87 1016.2
20260507091025 56 359 0.0 1.7 0.00 0.00 0.00 87 1016.2
20260507090524 56 359 0.0 0.0 0.00 0.00 0.00 87 1016.3
20260507090034 56 273 0.0 0.0 0.00 0.00 0.00 87 1016.3
20260507085523 56 273 0.0 0.9 0.00 0.00 0.00 87 1016.4
20260507085023 56 272 0.0 2.6 0.00 0.00 0.00 87 1016.5
20260507084532 56 273 0.0 0.0 0.00 0.00 0.00 87 1016.5
20260507084023 56 272 0.0 1.7 0.00 0.00 0.00 86 1016.6
20260507083522 56 273 0.9 1.7 0.00 0.00 0.00 87 1016.6
20260507083020 56 272 0.0 0.0 0.00 0.00 0.00 86 1016.7
20260507082519 56 272 0.0 0.0 0.00 0.00 0.00 86 1016.6
20260507082020 56 359 0.0 0.0 0.00 0.00 0.00 86 1016.7
20260507081519 56 273 0.0 0.0 0.00 0.00 0.00 86 1016.8
20260507081017 57 273 0.0 0.0 0.00 0.00 0.00 86 1016.9
20260507080518 57 272 0.0 0.0 0.00 0.00 0.00 86 1016.8
20260507080016 57 272 0.0 0.0 0.00 0.00 0.00 85 1016.9
20260507075515 57 272 0.0 0.0 0.00 0.00 0.00 85 1016.8
20260507075015 57 272 0.0 0.0 0.00 0.00 0.00 85 1016.8
20260507074524 57 273 0.0 0.0 0.00 0.00 0.00 85 1016.8
20260507074013 57 272 0.0 0.0 0.00 0.00 0.00 85 1016.7
20260507073514 57 273 0.0 0.0 0.00 0.00 0.00 85 1016.7
20260507073013 57 273 0.0 0.0 0.00 0.00 0.00 85 1016.7
20260507072513 57 272 0.0 0.0 0.00 0.00 0.00 85 1016.7
20260507072012 57 272 0.0 0.0 0.00 0.00 0.00 85 1016.8
20260507071511 57 359 0.0 0.0 0.00 0.00 0.00 84 1016.8
20260507071010 58 273 0.0 0.0 0.00 0.00 0.00 85 1016.8
20260507070510 58 272 0.0 0.0 0.00 0.00 0.00 85 1016.8
20260507070013 58 272 0.0 0.0 0.00 0.00 0.00 84 1016.8
20260507065514 58 273 0.0 0.0 0.00 0.00 0.00 84 1016.9
20260507065009 58 273 0.0 0.0 0.00 0.00 0.00 84 1016.8
20260507064509 58 359 0.0 0.0 0.00 0.00 0.00 84 1016.9
20260507064009 58 272 0.0 0.0 0.00 0.00 0.00 84 1016.9
20260507063508 58 272 0.0 0.0 0.00 0.00 0.00 83 1017.0
20260507063010 58 273 0.0 0.0 0.00 0.00 0.00 83 1016.9
20260507062508 59 273 0.0 0.0 0.00 0.00 0.00 82 1016.9
20260507062008 59 273 0.0 0.0 0.00 0.00 0.00 82 1017.0
20260507061508 59 273 0.0 0.0 0.00 0.00 0.00 82 1017.0
20260507061008 59 273 0.0 0.0 0.00 0.00 0.00 82 1017.0
20260507060507 59 273 0.0 0.0 0.00 0.00 0.00 82 1017.0
20260507060011 59 272 0.0 0.0 0.00 0.00 0.00 81 1017.0
20260507055508 59 272 0.0 0.0 0.00 0.00 0.00 81 1017.1
20260507055007 60 272 0.0 0.0 0.00 0.00 0.00 81 1016.9
20260507054507 60 273 0.0 0.0 0.00 0.00 0.00 81 1016.9
20260507054007 60 273 0.0 0.0 0.00 0.00 0.00 81 1016.9
20260507053507 60 272 0.0 0.0 0.00 0.00 0.00 81 1016.9
20260507053007 60 273 0.0 0.0 0.00 0.00 0.00 81 1016.8
20260507052508 60 273 0.0 0.0 0.00 0.00 0.00 81 1016.8
20260507052008 60 273 0.0 0.0 0.00 0.00 0.00 81 1016.8
20260507051507 60 273 0.0 0.0 0.00 0.00 0.00 80 1016.8
20260507051007 60 273 0.0 0.0 0.00 0.00 0.00 80 1016.9
20260507050506 61 273 0.0 0.0 0.00 0.00 0.00 80 1016.8
20260507050006 61 273 0.0 0.0 0.00 0.00 0.00 80 1016.8
20260507045506 61 272 0.0 0.0 0.00 0.00 0.00 80 1016.7
20260507045006 61 273 0.0 0.0 0.00 0.00 0.00 80 1016.8
20260507044506 61 273 0.0 0.0 0.00 0.00 0.00 79 1016.8
20260507044005 62 272 0.0 0.0 0.00 0.00 0.00 78 1016.7
20260507043504 62 273 0.0 0.0 0.00 0.00 0.00 77 1016.7
20260507043005 62 273 0.0 0.0 0.00 0.00 0.00 77 1016.8
20260507042505 63 272 0.0 0.0 0.00 0.00 0.00 76 1016.7
20260507042005 63 273 0.0 1.7 0.00 0.00 0.00 76 1016.7
20260507041508 63 272 0.0 1.7 0.00 0.00 0.00 76 1016.7
20260507041008 63 273 0.0 1.7 0.00 0.00 0.00 76 1016.7
20260507040505 63 273 0.0 0.0 0.00 0.00 0.00 76 1016.7
20260507040006 63 273 0.0 0.0 0.00 0.00 0.00 76 1016.6
20260507035504 63 273 0.0 0.0 0.00 0.00 0.00 76 1016.6
20260507035004 63 272 0.0 0.9 0.00 0.00 0.00 76 1016.5
20260507034505 63 273 0.0 5.2 0.00 0.00 0.00 76 1016.5
20260507034004 63 272 0.9 5.2 0.00 0.00 0.00 76 1016.4
20260507033504 63 273 0.9 5.2 0.00 0.00 0.00 76 1016.4
20260507033004 63 274 0.9 3.5 0.00 0.00 0.00 76 1016.4
20260507032504 63 275 0.9 5.2 0.00 0.00 0.00 76 1016.4
20260507032003 63 274 0.9 5.2 0.00 0.00 0.00 76 1016.4
20260507031505 63 273 0.9 5.2 0.00 0.00 0.00 78 1016.3
20260507031003 63 258 0.0 5.2 0.00 0.00 0.00 79 1016.2
20260507030503 63 258 0.9 5.2 0.00 0.00 0.00 80 1016.2
20260507030003 63 250 0.0 4.3 0.00 0.00 0.00 81 1016.1
20260507025502 63 250 1.7 4.3 0.00 0.00 0.00 81 1016.0
20260507025003 63 253 0.0 3.5 0.00 0.00 0.00 82 1016.0
20260507024503 63 253 0.9 4.3 0.00 0.00 0.00 82 1015.9
20260507024003 63 253 0.0 6.1 0.00 0.00 0.00 82 1015.9
20260507023502 64 269 0.9 7.0 0.00 0.00 0.00 82 1015.9
20260507023002 64 272 1.7 7.0 0.00 0.00 0.00 81 1015.9
20260507022503 64 283 1.7 7.0 0.00 0.00 0.00 81 1015.8
20260507022004 64 252 0.0 7.0 0.00 0.00 0.00 80 1015.8
20260507021501 64 229 0.0 7.0 0.00 0.00 0.00 80 1015.8
20260507021004 64 293 2.6 7.0 0.00 0.00 0.00 79 1015.7
20260507020502 65 296 0.0 5.2 0.00 0.00 0.00 79 1015.6
20260507020001 65 277 0.9 9.6 0.00 0.00 0.00 79 1015.7
20260507015501 65 231 3.5 9.6 0.00 0.00 0.00 79 1015.6
20260507015002 65 276 1.7 7.0 0.00 0.00 0.00 79 1015.6
20260507014607 65 239 3.5 7.8 0.00 0.00 0.00 79 1015.6
20260507014101 66 272 1.7 7.8 0.00 0.00 0.00 80 1015.6
20260507013602 66 284 0.9 7.8 0.00 0.00 0.00 81 1015.6
20260507013101 66 269 1.7 8.7 0.00 0.00 0.00 81 1015.6
20260507012601 66 305 3.5 8.7 0.00 0.00 0.00 80 1015.5
20260507012059 66 270 2.6 7.8 0.00 0.00 0.00 79 1015.6
20260507011600 66 293 2.6 7.8 0.00 0.00 0.00 79 1015.5
20260507011059 67 278 3.5 7.8 0.00 0.00 0.00 80 1015.5
20260507010559 66 274 2.6 7.8 0.00 0.00 0.00 80 1015.5
20260507010114 66 289 2.6 7.8 0.00 0.00 0.00 80 1015.5
20260507005559 67 295 2.6 8.7 0.00 0.00 0.00 80 1015.6
20260507005100 67 268 3.5 8.7 0.00 0.00 0.00 80 1015.5
20260507004558 67 305 3.5 8.7 0.00 0.00 0.00 80 1015.5
20260507004058 67 284 3.5 8.7 0.00 0.00 0.00 79 1015.5
20260507003559 67 287 3.5 7.8 0.00 0.00 0.00 79 1015.5
20260507003057 68 208 2.6 7.8 0.00 0.00 0.00 79 1015.5
20260507002557 68 239 0.9 7.8 0.00 0.00 0.00 79 1015.5
20260507002059 68 282 0.0 8.7 0.00 0.00 0.00 79 1015.4
20260507001601 68 250 2.6 9.6 0.00 0.00 0.00 79 1015.4
20260507001057 68 297 2.6 9.6 0.00 0.00 0.00 79 1015.4
20260507000559 68 230 2.6 7.8 0.00 0.00 0.00 79 1015.3
20260507000104 68 255 4.3 8.7 0.00 0.00 0.00 77 1015.4
20260506235556 68 273 5.2 9.6 0.00 0.00 0.00 75 1015.3
20260506235058 69 243 2.6 7.8 0.00 0.00 0.00 74 1015.4
20260506234607 69 213 1.7 7.0 0.00 0.00 0.00 74 1015.3
20260506234055 68 193 0.0 8.7 0.00 0.00 0.00 75 1015.3
20260506233555 68 299 3.5 9.6 0.00 0.00 0.00 73 1015.3
20260506233102 69 308 3.5 9.6 0.00 0.00 0.00 71 1015.3
20260506232553 69 300 2.6 7.8 0.00 0.00 0.00 71 1015.3
20260506232053 69 189 2.6 7.8 0.00 0.00 0.00 71 1015.3
20260506231553 69 193 4.3 8.7 0.00 0.00 0.00 70 1015.4
20260506231053 69 241 3.5 8.7 0.00 0.00 0.00 68 1015.4
20260506230551 68 295 2.6 6.1 0.00 0.00 0.00 69 1015.5
20260506230053 68 300 1.7 7.0 0.00 0.00 0.00 72 1015.5
20260506225551 67 239 1.7 7.8 0.00 0.00 0.00 75 1015.5
20260506225053 67 291 3.5 7.0 0.00 0.00 0.00 76 1015.6
20260506224552 67 207 2.6 7.8 0.00 0.00 0.00 78 1015.7
20260506224048 67 237 2.6 7.8 0.00 0.00 0.00 79 1015.8
20260506223547 67 303 2.6 9.6 0.00 0.00 0.00 79 1015.9
20260506223046 67 249 3.5 9.6 0.00 0.00 0.00 80 1015.9
20260506222546 66 290 5.2 9.6 0.00 0.00 0.00 79 1016.0
20260506222045 67 276 4.3 9.6 0.00 0.00 0.00 78 1016.1
20260506221548 67 284 3.5 9.6 0.00 0.00 0.00 79 1016.0
20260506221044 67 206 4.3 9.6 0.00 0.00 0.00 78 1016.1
20260506220544 68 203 2.6 8.7 0.00 0.00 0.00 78 1016.2
20260506220050 68 228 1.7 6.1 0.00 0.00 0.00 79 1016.3
20260506215543 68 269 2.6 7.8 0.00 0.00 0.00 78 1016.3
20260506215047 67 286 1.7 7.8 0.00 0.00 0.00 79 1016.3
20260506214543 67 205 2.6 7.0 0.00 0.00 0.00 78 1016.4
20260506214044 67 276 0.9 7.8 0.00 0.00 0.00 78 1016.5
20260506213543 67 208 3.5 7.0 0.00 0.00 0.00 77 1016.5
20260506213040 67 295 2.6 7.8 0.00 0.00 0.00 78 1016.5
20260506212540 67 314 2.6 8.7 0.00 0.00 0.00 79 1016.7
20260506212040 67 292 2.6 8.7 0.00 0.00 0.00 78 1016.7
20260506211548 67 220 3.5 7.8 0.00 0.00 0.00 78 1016.7
20260506211040 67 228 3.5 7.8 0.00 0.00 0.00 78 1016.8
20260506210539 67 294 1.7 8.7 0.00 0.00 0.00 77 1016.8
20260506210040 67 183 3.5 8.7 0.00 0.00 0.00 76 1016.8
20260506205539 67 272 3.5 7.8 0.00 0.00 0.00 77 1016.9
20260506205104 67 174 1.7 7.8 0.00 0.00 0.00 76 1016.9
20260506204539 67 158 1.7 10.4 0.00 0.00 0.00 77 1017.0
20260506204039 67 210 3.5 10.4 0.00 0.00 0.00 77 1016.9
20260506203538 67 268 3.5 8.7 0.00 0.00 0.00 76 1016.9
20260506203502 67 227 3.5 8.7 0.00 0.00 0.00 76 1016.9
20260506203037 67 274 2.6 8.7 0.00 0.00 0.00 77 1016.9
20260506202538 67 207 2.6 8.7 0.00 0.00 0.00 76 1017.1
20260506202038 67 193 2.6 8.7 0.00 0.00 0.00 76 1017.1
20260506201537 67 239 2.6 10.4 0.00 0.00 0.00 75 1017.1
20260506201036 67 283 2.6 10.4 0.00 0.00 0.00 76 1017.1
20260506200536 67 208 1.7 7.0 0.00 0.00 0.00 76 1017.2
20260506200036 66 310 3.5 10.4 0.00 0.00 0.00 77 1017.2
20260506195536 66 309 1.7 10.4 0.00 0.00 0.00 78 1017.4
20260506195036 66 294 1.7 7.0 0.00 0.00 0.00 79 1017.4
20260506194538 65 220 1.7 7.8 0.00 0.00 0.00 79 1017.4
20260506194035 66 202 4.3 7.8 0.00 0.00 0.00 77 1017.5
20260506193533 67 233 2.6 7.8 0.00 0.00 0.00 78 1017.6
20260506193034 66 318 1.7 7.0 0.00 0.00 0.00 79 1017.6
20260506192532 65 197 1.7 7.0 0.00 0.00 0.00 80 1017.6
20260506192032 65 181 2.6 7.0 0.00 0.00 0.00 80 1017.7
20260506191534 65 195 1.7 7.0 0.00 0.00 0.00 80 1017.8
20260506191031 65 195 3.5 7.0 0.00 0.00 0.00 79 1017.8
20260506190530 65 208 0.9 7.8 0.00 0.00 0.00 80 1017.8
20260506190029 65 247 0.0 7.8 0.00 0.00 0.00 80 1017.8
20260506185528 65 188 2.6 5.2 0.00 0.00 0.00 79 1017.9
20260506185027 66 280 1.7 7.0 0.00 0.00 0.00 78 1018.0
20260506184527 66 275 1.7 7.0 0.00 0.00 0.00 79 1018.0
20260506184029 66 253 2.6 6.1 0.00 0.00 0.00 79 1018.0
20260506183524 65 253 1.7 6.1 0.00 0.00 0.00 79 1018.1
20260506183023 65 242 0.0 6.1 0.00 0.00 0.00 78 1018.1
20260506182521 66 235 0.9 7.0 0.00 0.00 0.00 78 1018.1
20260506182024 66 230 0.0 6.1 0.00 0.00 0.00 78 1018.2
20260506181521 66 227 0.9 6.1 0.00 0.00 0.00 77 1018.1
20260506181020 67 206 2.6 5.2 0.00 0.00 0.00 75 1018.2
20260506180521 67 245 1.7 4.3 0.00 0.00 0.00 75 1018.2
20260506180018 67 174 0.0 6.1 0.00 0.00 0.00 75 1018.1
20260506175516 68 211 0.0 6.1 0.00 0.00 0.00 74 1018.1
20260506175015 68 156 1.7 4.3 0.00 0.00 0.00 74 1018.1
20260506174514 68 143 0.0 4.3 0.00 0.00 0.00 75 1018.1
20260506174014 68 143 1.7 4.3 0.00 0.00 0.00 74 1018.1
20260506173513 68 137 0.0 5.2 0.00 0.00 0.00 74 1018.1
20260506173011 69 152 0.0 4.3 0.00 0.00 0.00 74 1018.1
20260506172510 69 136 0.9 3.5 0.00 0.00 0.00 73 1018.1
20260506172008 68 137 0.0 3.5 0.00 0.00 0.00 74 1018.1
20260506171509 68 136 0.0 2.6 0.00 0.00 0.00 75 1018.2
20260506171007 67 136 0.0 2.6 0.00 0.00 0.00 75 1018.1
20260506170507 67 136 0.0 3.5 0.00 0.00 0.00 75 1018.2
20260506170003 67 125 0.0 3.5 0.00 0.00 0.00 76 1018.2
20260506165502 66 158 0.0 6.1 0.00 0.00 0.00 77 1018.2
20260506165001 66 166 0.0 6.1 0.00 0.00 0.00 75 1018.2
20260506164600 66 137 0.0 2.6 0.00 0.00 0.00 76 1018.2
20260506164058 66 188 0.0 3.5 0.00 0.00 0.00 77 1018.3
20260506163557 66 194 0.9 3.5 0.00 0.00 0.00 77 1018.3
20260506163056 66 91 0.0 3.5 0.00 0.00 0.00 76 1018.3
20260506162554 66 66 0.0 2.6 0.00 0.00 0.00 76 1018.3
20260506162056 66 62 0.0 2.6 0.00 0.00 0.00 76 1018.3
20260506161603 66 61 0.0 2.6 0.00 0.00 0.00 76 1018.2
20260506161054 66 61 0.0 0.0 0.00 0.00 0.00 75 1018.2
20260506160550 67 52 0.0 3.5 0.00 0.00 0.00 75 1018.2
20260506160050 67 52 0.9 3.5 0.00 0.00 0.00 74 1018.2
20260506155548 66 52 0.0 1.7 0.00 0.00 0.00 75 1018.2
20260506155048 66 52 0.0 4.3 0.00 0.00 0.00 76 1018.2
20260506154546 65 52 0.0 4.3 0.00 0.00 0.00 75 1018.1
20260506154045 66 48 0.9 3.5 0.00 0.00 0.00 76 1018.1
20260506153542 65 359 0.0 0.9 0.00 0.00 0.00 76 1018.1
20260506153044 65 359 0.0 0.9 0.00 0.00 0.00 76 1018.1
20260506152543 65 359 0.0 2.6 0.00 0.00 0.00 75 1018.1
20260506152041 65 359 0.0 2.6 0.00 0.00 0.00 75 1018.1
20260506151539 65 359 0.0 1.7 0.00 0.00 0.00 74 1018.1
20260506151038 65 359 0.0 2.6 0.00 0.00 0.00 75 1018.1
20260506150536 65 359 0.0 2.6 0.00 0.00 0.00 75 1018.1
20260506150043 64 354 0.0 1.7 0.00 0.00 0.00 76 1018.1
20260506145534 63 359 0.9 2.6 0.00 0.00 0.00 76 1018.0
20260506145035 63 354 0.0 2.6 0.00 0.00 0.00 76 1018.1
20260506144550 62 319 0.0 2.6 0.00 0.00 0.00 77 1018.0
20260506144030 62 314 0.0 2.6 0.00 0.00 0.00 79 1018.1
20260506143528 61 314 0.0 2.6 0.00 0.00 0.00 81 1018.1